This demonstration page uses our WeatherBlox Daily Observations layout. Learn more.

Left ArrowRight Arrow

41.55636, -103.73856

Hourly Observations for May 27, 2022

Temp ( °F °C ) Dew Point ( °F °C ) Humidity (%) Winds ( mph kmh ) Pressure ( in mb ) Visibility ( mi km ) Precip ( " mm )
12:58 am 00:58 Clear 59 14.9 38 3.1 45 45 Calm 29.87 1011 10 16 0.00 0.00
1:58 am 01:58 Clear 59 14.8 37 3 45 45 E 9 15 29.86 1011 10 16 0.00 0.00
2:58 am 02:58 Clear 58 14.5 36 2.4 44 44 Calm 29.84 1011 10 16 0.00 0.00
3:58 am 03:58 Clear 57 13.8 36 2.4 46 46 ESE 6 9 29.82 1010 10 16 0.00 0.00
4:58 am 04:58 Clear 50 9.9 37 2.7 61 61 SW 3 6 29.83 1010 10 16 0.00 0.00
5:58 am 05:58 Sunny 52 11.2 36 2.2 54 54 Calm 29.82 1010 10 16 0.00 0.00
6:58 am 06:58 Sunny 56 13.5 39 3.8 52 52 Calm 29.81 1009 10 16 0.00 0.00
7:58 am 07:58 Sunny 65 18.3 40 4.5 40 40 Calm 29.78 1009 10 16 0.00 0.00
8:58 am 08:58 Sunny 74 23.2 40 4.2 29 29 SE 5 7 29.76 1008 10 16 0.00 0.00
9:58 am 09:58 Sunny 80 26.7 40 4.4 24 24 SSW 14 22 29.73 1007 10 16 0.00 0.00
10:58 am 10:58 Sunny 85 29.6 35 1.9 17 17 SSW 24 39 29.69 1005 10 16 0.00 0.00
11:58 am 11:58 Sunny 89 31.6 30 -1.3 12 12 SW 17 28 29.69 1006 10 16 0.00 0.00
12:58 pm 12:58 Mostly Sunny 87 30.8 29 -1.9 12 12 SW 21 33 29.65 1004 10 16 0.00 0.00
1:58 pm 13:58 Sunny with Nearby Thunderstorms 88 31.3 29 -1.5 12 12 SSW 20 31 29.62 1003 10 16 0.00 0.00
2:58 pm 14:58 Partly Cloudy 84 28.7 37 2.8 19 19 NNE 7 11 29.63 1003 10 16 0.00 0.00
3:58 pm 15:58 Cloudy with Light Rain 76 24.3 38 3.6 26 26 NNE 8 13 29.71 1006 10 16 0.01 0.25
4:58 pm 16:58 Mostly Sunny 75 23.8 45 7 34 34 ESE 9 15 29.67 1005 10 16 0.00 0.00
5:58 pm 17:58 Cloudy 78 25.7 27 -2.9 15 15 SW 20 31 29.68 1005 10 16 0.00 0.00
6:58 pm 18:58 Sunny 73 22.6 41 5.1 32 32 SSW 8 13 29.67 1005 10 16 0.00 0.00
7:58 pm 19:58 Mostly Sunny 69 20.7 39 3.8 33 33 SSW 8 13 29.64 1004 10 16 0.00 0.00
8:58 pm 20:58 Mostly Cloudy 64 17.5 42 5.7 46 46 SSW 13 20 29.66 1004 10 16 0.00 0.00
9:58 pm 21:58 Cloudy 67 19.3 40 4.6 38 38 SW 6 9 29.65 1004 10 16 0.00 0.00
10:58 pm 22:58 Cloudy 63 17.3 41 5.2 45 45 SSW 9 15 29.67 1005 10 16 0.00 0.00
11:58 pm 23:58 Partly Cloudy 63 17.3 39 3.9 41 41 SW 6 9 29.66 1004 10 16 0.00 0.00

Powered by AerisWeather